Location: Colconda
(10.2500°N, 61.4333°W)
Time: 06:08:56
(UTC+00:00)

Daily predictions for brighter satellites

Satellite Brightness Start Highest point End
(mag) Time Altitude Azimuth Time Altitude Azimuth Time Altitude Azimuth
SL-16 R/B 4.0 22:47:25 10° NE 22:49:33 12° ENE 22:51:40 10° E
ERBS 3.4 22:48:05 10° S 22:51:05 26° ESE 22:54:05 10° ENE
Cosmos 1627 Rocket 4.5 22:47:51 10° S 22:54:00 80° E 23:00:13 10° N
Cosmos 1470 3.1 22:51:01 10° N 22:54:58 74° W 22:58:57 10° S
COSMOS 2441 4.5 22:50:19 10° S 22:55:08 84° WSW 22:59:55 10° NNW
ATLAS CENTAUR R/B 2.7 22:54:56 10° NNE 22:58:06 22° ENE 23:01:06 10° ESE
Resurs 1-3 4.5 22:56:05 10° SE 22:59:55 30° ENE 23:03:45 10° NNE
Cosmos 1378 3.5 22:56:40 10° S 23:00:24 71° W 23:04:06 10° N
Cosmos 841 Rocket 4.2 22:55:28 10° NNW 23:00:35 58° WSW 23:05:41 10° S
ATLAS 2A CENTAUR R/B 2.9 22:47:00 10° SW 23:01:10 47° SSE 23:04:41 10° E
FREGAT/IRIS 2.6 22:59:23 10° SSE 23:02:28 65° E 23:05:32 10° N
Cosmos 1777 Rocket 4.1 22:58:20 10° SSW 23:03:38 85° WNW 23:08:53 10° N
Aurora 2 Rocket 3.3 23:01:17 10° WNW 23:06:48 48° SSW 23:10:32 11° SE
SWIFT 2.6 23:03:31 10° WNW 23:07:41 64° NNE 23:11:30 12° E
Helios 1A 3.0 23:07:47 10° SSE 23:12:01 88° ENE 23:16:15 10° N
ARIANE 3 DEB 4.3 23:20:35 10° WSW 23:27:13 29° S 23:29:19 19° SE
GPS 2-15 Rocket1 4.3 23:25:32 10° SSW 23:29:15 23° SSE 23:30:29 20° SE
BREEZE-M DEB (TANK) 3.7 23:26:01 10° SSW 23:29:50 23° SE 23:29:55 23° SE
H-2A R/B 4.0 23:32:55 23° E 23:33:29 23° ENE 23:36:35 10° NNE
Cosmos 1328 Rocket 4.4 23:29:57 10° NNE 23:33:50 30° E 23:35:11 25° ESE
Cosmos 540 Rocket 3.5 23:29:08 10° NNW 23:34:17 85° WSW 23:39:22 10° S
FengYun 1-2 T 4.2 23:31:20 11° SSE 23:36:36 67° ENE 23:42:03 10° N
Cosmos 2221 3.6 23:33:25 10° NNW 23:37:31 45° W 23:41:40 10° SSW
Hubble Space Telescope 3.6 23:35:27 10° NW 23:37:40 14° NNW 23:39:54 10° NNE
Cosmos 1743 Rocket 4.5 23:33:41 10° SSW 23:38:01 51° W 23:42:20 10° N
CZ-4B DEB 2.8 23:37:04 18° S 23:39:24 85° W 23:42:42 10° NNW
Cosmos 2360 4.3 23:34:42 10° NNW 23:40:25 79° WSW 23:45:39 12° S
NOSS 3-1 (A) 3.3 23:34:51 10° SSW 23:40:32 80° WNW 23:46:24 10° NNE
Cosmos 1500 Rocket 3.7 23:38:16 10° S 23:42:35 74° W 23:46:57 10° N
Centaur AC-119 3.2 23:37:41 10° WSW 23:42:39 40° NNW 23:44:18 15° NE
CZ-2D R/B 3.6 23:42:42 34° ESE 23:43:47 44° ENE 23:47:28 10° N
Cosmos 332 Rocket 3.8 23:39:21 10° NNW 23:44:12 81° W 23:48:03 16° S
Cosmos 2151 3.3 23:45:35 35° SE 23:46:35 41° E 23:50:31 10° NNE
ASTRO E2 3.2 23:43:50 10° WNW 23:47:43 49° SSW 23:49:01 34° SSE
Cosmos 1898 Rocket 3.8 23:46:11 19° SSE 23:49:29 42° E 23:54:19 10° NNE
XTE 4.4 23:53:05 10° NW 23:55:49 29° NNE 23:55:57 29° NNE
